Tracking 29594 objects as of 20-Sep-2024
HD Live streaming from Space Station
objects crossing your sky now

COSMOS 839 DEB

Track COSMOS 839 DEB now!
10-day predictions


NORAD ID: 14919
Int'l Code: 1976-067BG
Perigee: 977.8 km
Apogee: 2,131.9 km
Inclination: 65.8 °
Period: 117.0 minutes
Semi major axis: 7925 km
RCS: 0.0133 m2 (small)
Launch date: July 8, 1976
Source: Commonwealth of Independent States (former USSR) (CIS)
Launch site: PLESETSK MISSILE AND SPACE COMPLEX (PKMTR)

Note: This is SATELLITE DEBRIS
Your satellite tracking list
Your tracking list is empty




NASA's NSSDC Master Catalog

Two Line Element Set (TLE):
1 14919U 76067BG  24260.12451687 -.00000007  00000-0  16707-3 0  9990
2 14919  65.8029 135.3461 0728028 336.1231  93.4428 12.30367864555921
Source of the keplerian elements: AFSPC